Hourly Data Report for October 05, 2016

All times are specified in Local Standard Time (LST). Add 1 hour to adjust for Daylight Saving Time where and when it is observed.

HALL BEACH A
NUNAVUT

68°46'33.000" N
81°14'33.000" W
9.10 m
2402354
71293
YUX

Download Data

Hourly Data (October 2016)
Hourly Data Report for October 5, 2016
Temp Definition
°C
Dew Point Temp Definition
°C
Rel Hum Definition
%
Wind Dir Definition
10's deg

Wind Spd Definition
km/h
Visibility Definition
km
Stn Press Definition
kPa
Hmdx Definition


Wind Chill Definition


Weather Definition


TIME
00:00 Legend Double Dagger -1.7 -2.7 93 35 39 16.1 100.17   -10 Snow
01:00 Legend Double Dagger -2.0 -3.0 93 34 43 16.1 100.25   -10 LegendNANA
02:00 Legend Double Dagger -2.0 -3.0 93 35 41 16.1 100.33   -10 Snow
03:00 Legend Double Dagger -2.0 -2.7 95 34 41 6.4 100.42   -10 Snow
04:00 Legend Double Dagger -2.1 -3.1 93 35 46 11.3 100.49   -11 Snow
05:00 Legend Double Dagger -2.2 -3.0 94 35 43 11.3 100.56   -11 Snow
06:00 Legend Double Dagger -2.1 -3.2 92 35 43 16.1 100.67   -10 LegendNANA
07:00 Legend Double Dagger -2.3 -3.4 92 34 43 16.1 100.79   -11 LegendNANA
08:00 Legend Double Dagger -2.6 -3.9 91 34 41 16.1 100.88   -11 LegendNANA
09:00 Legend Double Dagger -2.8 -4.2 90 34 45 16.1 100.93   -12 LegendNANA
10:00 Legend Double Dagger -2.9 -4.5 89 35 41 16.1 100.99   -11 LegendNANA
11:00 Legend Double Dagger -2.6 -4.2 89 34 35 16.1 101.04   -10 LegendNANA
12:00 Legend Double Dagger -2.6 -4.2 89 34 39 16.1 101.10   -11 LegendNANA
13:00 Legend Double Dagger -2.6 -4.3 88 34 39 16.1 101.16   -11 LegendNANA
14:00 Legend Double Dagger -2.6 -4.4 87 34 39 16.1 101.24   -11 LegendNANA
15:00 Legend Double Dagger -2.8 -4.5 88 34 35 16.1 101.33   -11 LegendNANA
16:00 Legend Double Dagger -3.4 -4.8 90 34 39 16.1 101.37   -12 LegendNANA
17:00 Legend Double Dagger -3.9 -5.0 92 33 39 16.1 101.42   -13 LegendNANA
18:00 Legend Double Dagger -4.5 -6.0 89 33 37 16.1 101.47   -13 LegendNANA
19:00 Legend Double Dagger -5.0 -6.5 89 33 37 16.1 101.51   -14 LegendNANA
20:00 Legend Double Dagger -5.7 -7.1 90 32 37 16.1 101.53   -15 LegendNANA
21:00 Legend Double Dagger -5.8 -7.0 91 33 39 16.1 101.52   -15 LegendNANA
22:00 Legend Double Dagger -7.1 -8.3 91 32 35 16.1 101.51   -16 LegendNANA
23:00 Legend Double Dagger -5.2 -6.6 90 34 35 16.1 101.50   -14 LegendNANA

Notes on Data Quality.

Legend

  • E = Estimated
  • M = Missing
  • NA = Not Available
  • ‡ = Partner data that is not subject to review by the National Climate Archives
Date modified: